Home > Weather > Maastricht > Past weeks

Flag for Netherlands Past Weather in Maastricht, Netherlands — Yesterday and Last 2 Weeks

Now
64 °F

Mostly cloudy.


Feels Like: 64 °F
Forecast: 52 / 74 °F
Wind: 8 mph from West

Location: Maastricht Airport Zuid Limburg

Current Time: Aug 29, 2016 at 11:17:32 AM

Latest Report: Aug 29, 2016 at 10:25 AM


Visibility: N/A

Pressure: 30.09 "Hg

Humidity: 83%

Dew Point: 59 °F

Location of MaastrichtLocation

Past Weather in Maastricht — Graph

°F

Maastricht Temperature Yesterday

Maximum temperature yesterday: 81 °F (at 10:25 AM)
Minimum temperature yesterday: 61 °F (at 11:55 PM)
Average temperature yesterday: 72 °F

High & Low Weather Summary for the Past Weeks

 TemperatureHumidityPressure
High91 °F (Aug 25, 4:25 PM)100% (Aug 16, 6:55 AM)30.33 "Hg (Aug 16, 6:55 AM)
Low50 °F (Aug 18, 6:25 AM)38% (Aug 24, 4:25 PM)29.80 "Hg (Aug 18, 4:25 AM)
Average69 °F71%30.04 "Hg
* Reported Aug 14 9:25 AM — Aug 29 9:55 AM, Maastricht, Weather by CustomWeather, © 2016

Note: Actual official high and low records may vary slightly from our data, if they occured in-between our weather recording intervals... More about our weather records

Advertising

Maastricht Weather History for the Previous 24 Hours

Scroll right to see more
 ConditionsComfort  
Time TempWeatherWind HumidityBarometerVisibility
9:55 AM
Mon, Aug 29
66 °FBroken clouds.8 mph78%30.07 "HgN/A
9:25 AM64 °FOvercast.8 mph83%30.07 "HgN/A
8:55 AM64 °FMostly cloudy.6 mph83%30.07 "HgN/A
8:25 AM64 °FOvercast.5 mph83%30.07 "HgN/A
7:55 AM64 °FClear.6 mph78%30.07 "HgN/A
7:25 AM63 °FPassing clouds.8 mph83%30.07 "HgN/A
6:55 AM64 °FClear.12 mph78%30.04 "HgN/A
6:25 AM63 °FClear.9 mph83%30.04 "HgN/A
5:55 AM63 °FClear.8 mph83%30.04 "HgN/A
5:25 AM64 °FPassing clouds.8 mph78%30.04 "HgN/A
4:55 AM63 °FClear.8 mph83%30.04 "HgN/A
4:25 AM63 °FClear.10 mph83%30.04 "HgN/A
3:55 AM63 °FClear.9 mph83%30.04 "HgN/A
3:25 AM63 °FClear.8 mph83%30.04 "HgN/A
2:55 AM63 °FClear.7 mph83%30.04 "HgN/A
2:25 AM61 °FClear.7 mph83%30.04 "HgN/A
1:55 AM59 °FClear.7 mph88%30.04 "HgN/A
1:25 AM61 °FCool.6 mph88%30.04 "HgN/A
12:55 AM61 °FClear.7 mph88%30.04 "HgN/A
12:25 AM63 °FMild.6 mph83%30.04 "HgN/A
11:55 PM
Sun, Aug 28
61 °FClear.5 mph88%30.04 "HgN/A
11:25 PM64 °FMild.3 mph78%30.04 "HgN/A
10:55 PM66 °FClear.3 mph73%30.04 "HgN/A
10:25 PM64 °FMild.3 mph78%30.01 "HgN/A
9:55 PM66 °FMild.7 mph73%30.01 "HgN/A
9:25 PM68 °FMild.3 mph64%30.01 "HgN/A
8:55 PM68 °FClear.3 mph69%30.01 "HgN/A
8:25 PM70 °FClear.6 mph64%29.98 "HgN/A
7:55 PM72 °FClear.5 mph61%29.98 "HgN/A
7:25 PM72 °FMild.6 mph61%29.98 "HgN/A
6:55 PM73 °FClear.9 mph57%29.98 "HgN/A
6:25 PM75 °FClear.10 mph57%29.98 "HgN/A
5:55 PM75 °FMild.10 mph57%29.98 "HgN/A
5:25 PM75 °FClear.9 mph57%29.98 "HgN/A
4:55 PM77 °FClear.12 mph54%29.95 "HgN/A
4:25 PM77 °FScattered clouds.14 mph54%29.95 "HgN/A
3:55 PM79 °FScattered clouds.9 mph58%29.95 "HgN/A
3:25 PM77 °FBroken clouds.12 mph65%29.95 "HgN/A
2:55 PM77 °FPassing clouds.15 mph65%29.95 "HgN/A
2:25 PM77 °FScattered clouds.14 mph65%29.95 "HgN/A
1:55 PM77 °FPassing clouds.13 mph65%29.95 "HgN/A
1:25 PM77 °FScattered clouds.12 mph74%29.95 "HgN/A
12:55 PM77 °FMostly cloudy.12 mph69%29.95 "HgN/A
12:25 PM77 °FClear.15 mph69%29.95 "HgN/A
11:55 AM79 °FClear.14 mph61%29.92 "HgN/A
11:25 AM79 °FWarm.15 mph61%29.92 "HgN/A
Weather by CustomWeather, © 2016

See weather overviewHow to use our weather pages